Oakes, ND

4:37 AM CST on November 23, 2017 (GMT -0600)
Oakes

Weather History for K2D5 - March, 2014

Change the Weather History Date:

Sunday, March 2, 2014

  Actual Average (KP67) Record (KP67)
Temperature  
Mean Temperature -4 °F -  
Max Temperature 6 °F 24 °F 28 °F (1998)
Min Temperature -13 °F 7 °F 0 °F (1997)
Degree Days  
Heating Degree Days 68    
Moisture  
Dew Point -15 °F    
Average Humidity 56    
Maximum Humidity 72    
Minimum Humidity 43    
Precipitation  
Precipitation 0.00 in - - ()
Sea Level Pressure  
Sea Level Pressure 30.52 in    
Wind  
Wind Speed 12 mph (WNW)    
Max Wind Speed 18 mph    
Max Gust Speed 23 mph    
Visibility 10 miles    
Events      
Averages and records for this station are not official NWS values.
T = Trace of Precipitation, MM = Missing Value Source: NWS Daily Summary

Daily Weather History Graph

Daily Weather History Graph

Search for Another Location

Airport or City:

Trip Planner

Search our weather history database for the weather conditions in past years. The results will help you decide how hot, cold, wet, or windy it might be!

Date:

Astronomy

Mar. 02, 2014 Rise Set
Actual Time 7:09 AM CST 6:20 PM CST
Civil Twilight 6:39 AM CST 6:50 PM CST
Nautical Twilight 6:04 AM CST 7:24 PM CST
Astronomical Twilight 5:29 AM CST 7:59 PM CST
Moon 7:34 AM CST (3/2) 8:26 PM CST (3/2)
Length of Visible Light 12h 10m
Length of Day
11h 10m
Waxing Crescent, 3% of the Moon is Illuminated
Mar 2
Waxing Crescent
Mar 8
First Quarter
Mar 16
Full
Mar 23
Last Quarter
Mar 30
New

Hourly Weather History & Observations

Time (CST) Temp. Windchill Dew Point Humidity Pressure Visibility Wind Dir Wind Speed Gust Speed Precip Events Conditions
12:15 AM -9.4 °F -31.4 °F -20.2 °F 59% 30.54 in 10.0 mi WNW 15.0 mph - N/A   Clear
12:35 AM -9.4 °F -29.8 °F -20.2 °F 59% 30.54 in 10.0 mi WNW 12.7 mph - N/A   Mostly Cloudy
12:55 AM -9.4 °F -29.8 °F -20.2 °F 59% 30.54 in 10.0 mi West 12.7 mph - N/A   Overcast
1:15 AM -7.6 °F -29.1 °F -20.2 °F 54% 30.54 in 10.0 mi WNW 15.0 mph - N/A   Overcast
1:35 AM -7.6 °F -29.8 °F -20.2 °F 54% 30.54 in 10.0 mi WNW 16.1 mph - N/A   Overcast
1:55 AM -7.6 °F -29.1 °F -20.2 °F 54% 30.54 in 10.0 mi WNW 15.0 mph 19.6 mph N/A   Overcast
2:15 AM -7.6 °F -29.1 °F -20.2 °F 54% 30.55 in 10.0 mi WNW 15.0 mph - N/A   Overcast
2:35 AM -9.4 °F -28.9 °F -20.2 °F 59% 30.54 in 10.0 mi NW 11.5 mph - N/A   Overcast
2:55 AM -9.4 °F -29.8 °F -20.2 °F 59% 30.54 in 10.0 mi WNW 12.7 mph 21.9 mph N/A   Mostly Cloudy
3:15 AM -9.4 °F -26.8 °F -20.2 °F 59% 30.53 in 10.0 mi WNW 9.2 mph - N/A   Mostly Cloudy
3:35 AM -9.4 °F -26.8 °F -20.2 °F 59% 30.53 in 10.0 mi NW 9.2 mph - N/A   Partly Cloudy
3:55 AM -11.2 °F -30.1 °F -20.2 °F 64% 30.53 in 10.0 mi WNW 10.4 mph - N/A   Clear
4:15 AM -11.2 °F -30.1 °F -20.2 °F 64% 30.53 in 10.0 mi WNW 10.4 mph - N/A   Clear
4:35 AM -11.2 °F -27.8 °F -20.2 °F 64% 30.53 in 10.0 mi West 8.1 mph - N/A   Clear
4:55 AM -11.2 °F -27.8 °F -20.2 °F 64% 30.52 in 10.0 mi WNW 8.1 mph - N/A   Clear
5:15 AM -11.2 °F -31.1 °F -20.2 °F 64% 30.53 in 10.0 mi West 11.5 mph - N/A   Clear
5:35 AM -11.2 °F -29.0 °F -20.2 °F 64% 30.53 in 10.0 mi West 9.2 mph - N/A   Clear
5:55 AM -11.2 °F -30.1 °F -20.2 °F 64% 30.53 in 10.0 mi West 10.4 mph - N/A   Clear
6:15 AM -13.0 °F -33.4 °F -20.2 °F 70% 30.53 in 10.0 mi WNW 11.5 mph - N/A   Clear
6:35 AM -13.0 °F -33.4 °F -20.2 °F 70% 30.53 in 10.0 mi WNW 11.5 mph - N/A   Clear
6:55 AM -13.0 °F -33.4 °F -20.2 °F 70% 30.53 in 10.0 mi West 11.5 mph - N/A   Clear
7:15 AM -13.0 °F -32.4 °F -20.2 °F 70% 30.53 in 10.0 mi West 10.4 mph - N/A   Clear
7:35 AM -11.2 °F -30.1 °F -20.2 °F 64% 30.54 in 10.0 mi West 10.4 mph - N/A   Clear
7:55 AM -11.2 °F -33.7 °F -22.0 °F 59% 30.54 in 10.0 mi WNW 15.0 mph 19.6 mph N/A   Clear
8:15 AM -11.2 °F -34.4 °F -22.0 °F 59% 30.54 in 10.0 mi WNW 16.1 mph 20.7 mph N/A   Clear
8:35 AM -9.4 °F -31.4 °F -22.0 °F 54% 30.54 in 10.0 mi WNW 15.0 mph 19.6 mph N/A   Clear
8:55 AM -9.4 °F -32.8 °F -20.2 °F 59% 30.54 in 10.0 mi West 17.3 mph 23.0 mph N/A   Clear
9:15 AM -7.6 °F -29.8 °F -20.2 °F 54% 30.55 in 10.0 mi WNW 16.1 mph - N/A   Clear
9:35 AM -7.6 °F -31.1 °F -20.2 °F 54% 30.54 in 10.0 mi WNW 18.4 mph - N/A   Clear
9:55 AM -5.8 °F -26.8 °F -20.2 °F 50% 30.54 in 10.0 mi WNW 15.0 mph - N/A   Clear
10:15 AM -4.0 °F -24.5 °F -18.4 °F 50% 30.53 in 10.0 mi WNW 15.0 mph - N/A   Clear
10:35 AM -4.0 °F -23.0 °F -18.4 °F 50% 30.53 in 10.0 mi WNW 12.7 mph - N/A   Clear
10:55 AM -2.2 °F -22.9 °F -18.4 °F 46% 30.53 in 10.0 mi WNW 16.1 mph - N/A   Clear
11:15 AM -0.4 °F -19.9 °F -18.4 °F 43% 30.53 in 10.0 mi WNW 15.0 mph 23.0 mph N/A   Clear
11:35 AM -0.4 °F -19.2 °F -16.6 °F 46% 30.53 in 10.0 mi NW 13.8 mph - N/A   Clear
11:55 AM -0.4 °F -19.2 °F -16.6 °F 46% 30.53 in 10.0 mi NW 13.8 mph - N/A   Clear
12:15 PM -0.4 °F -21.2 °F -16.6 °F 46% 30.53 in 10.0 mi NW 17.3 mph - N/A   Clear
12:35 PM 1.4 °F -17.6 °F -14.8 °F 47% 30.53 in 10.0 mi WNW 15.0 mph 21.9 mph N/A   Clear
12:55 PM 1.4 °F -17.6 °F -14.8 °F 47% 30.53 in 10.0 mi WNW 15.0 mph - N/A   Clear
1:15 PM 3.2 °F -14.6 °F -13.0 °F 47% 30.52 in 10.0 mi WNW 13.8 mph - N/A   Clear
1:35 PM 3.2 °F -15.3 °F -13.0 °F 47% 30.51 in 10.0 mi WNW 15.0 mph 18.4 mph N/A   Clear
1:55 PM 5.0 °F -13.6 °F -11.2 °F 47% 30.51 in 10.0 mi NW 16.1 mph 20.7 mph N/A   Clear
2:15 PM 5.0 °F -12.3 °F -11.2 °F 47% 30.50 in 10.0 mi WNW 13.8 mph 19.6 mph N/A   Clear
2:35 PM 5.0 °F -13.0 °F -11.2 °F 47% 30.49 in 10.0 mi NW 15.0 mph - N/A   Clear
2:55 PM 5.0 °F -12.3 °F -11.2 °F 47% 30.50 in 10.0 mi NW 13.8 mph 17.3 mph N/A   Clear
3:15 PM 6.8 °F -9.3 °F -11.2 °F 44% 30.50 in 10.0 mi NW 12.7 mph - N/A   Clear
3:35 PM 6.8 °F -10.0 °F -11.2 °F 44% 30.50 in 10.0 mi NW 13.8 mph - N/A   Clear
3:55 PM 6.8 °F -10.0 °F -11.2 °F 44% 30.51 in 10.0 mi NW 13.8 mph - N/A   Clear
4:15 PM 6.8 °F -9.3 °F -11.2 °F 44% 30.51 in 10.0 mi NW 12.7 mph - N/A   Clear
4:35 PM 6.8 °F -7.8 °F -11.2 °F 44% 30.50 in 10.0 mi NW 10.4 mph - N/A   Clear
4:55 PM 6.8 °F -6.9 °F -9.4 °F 48% 30.48 in 10.0 mi NW 9.2 mph - N/A   Clear
5:15 PM 5.0 °F -10.8 °F -11.2 °F 47% 30.48 in 10.0 mi WNW 11.5 mph 17.3 mph N/A   Clear
5:35 PM 5.0 °F -10.0 °F -11.2 °F 47% 30.48 in 10.0 mi NW 10.4 mph - N/A   Clear
5:55 PM 5.0 °F -10.0 °F -11.2 °F 47% 30.49 in 10.0 mi NW 10.4 mph - N/A   Clear
6:15 PM 3.2 °F -9.1 °F -9.4 °F 56% 30.48 in 10.0 mi NW 6.9 mph - N/A   Clear
6:35 PM 1.4 °F -9.9 °F -9.4 °F 61% 30.48 in 10.0 mi NW 5.8 mph - N/A   Clear
6:55 PM 1.4 °F -11.3 °F -9.4 °F 61% 30.48 in 10.0 mi NW 6.9 mph - N/A   Partly Cloudy
7:15 PM 1.4 °F -9.9 °F -7.6 °F 66% 30.49 in 10.0 mi NW 5.8 mph - N/A   Mostly Cloudy
7:35 PM 1.4 °F -9.9 °F -7.6 °F 66% 30.49 in 10.0 mi NW 5.8 mph - N/A   Overcast
7:55 PM 1.4 °F -11.3 °F -7.6 °F 66% 30.48 in 10.0 mi NNW 6.9 mph - N/A   Overcast
8:15 PM 1.4 °F -9.9 °F -7.6 °F 66% 30.48 in 10.0 mi North 5.8 mph - N/A   Overcast
8:35 PM 1.4 °F -11.3 °F -9.4 °F 61% 30.48 in 10.0 mi North 6.9 mph - N/A   Overcast
8:55 PM 1.4 °F -12.5 °F -9.4 °F 61% 30.48 in 10.0 mi NNW 8.1 mph - N/A   Overcast
9:15 PM 1.4 °F -9.9 °F -9.4 °F 61% 30.48 in 10.0 mi NNW 5.8 mph - N/A   Overcast
9:35 PM 1.4 °F -9.9 °F -9.4 °F 61% 30.49 in 10.0 mi NW 5.8 mph - N/A   Overcast
9:55 PM 1.4 °F -8.3 °F -9.4 °F 61% 30.48 in 10.0 mi NNW 4.6 mph - N/A   Mostly Cloudy
10:15 PM -0.4 °F -8.3 °F -9.4 °F 66% 30.48 in 10.0 mi NW 3.5 mph - N/A   Scattered Clouds
10:35 PM -0.4 °F - -7.6 °F 72% 30.48 in 10.0 mi Calm Calm - N/A   Mostly Cloudy
10:55 PM -0.4 °F -8.3 °F -7.6 °F 72% 30.48 in 10.0 mi West 3.5 mph - N/A   Partly Cloudy